Flag for Brazil Weather past 2 weeks in Rio Branco, Acre, Brazil

Now
37 °F

Thunderstorms. Broken clouds.


Feels Like: 28 °F
Forecast: N/A
Wind: 15 mph from East

Location: Rio Branco Airport

Current Time: Sep 1, 2015 at 4:21:40 PM

Latest Report: Sep 1, 2015 at 4:00 PM


Visibility: 2 mi

Pressure: 29.92 "Hg

Humidity: 100%

Dew point: 37 °F

Location of Rio BrancoLocation

Historic Weather in Rio Branco — Graph

°F

Rio Branco temperature yesterday

Maximum temperature yesterday: 90 °F (at 1:00 PM)
Minimum temperature yesterday: 73 °F (at 2:00 AM)
Average temperature yesterday: 78 °F

Past Weeks' High & Low Weather Summary

 TemperatureHumidityPressure
High97 °F (Aug 22, 3:00 PM)100% (Aug 18, 6:00 AM)30.07 "Hg (Aug 18, 6:00 AM)
Low36 °F (Aug 28, 12:00 AM)32% (Aug 24, 1:00 PM)29.74 "Hg (Aug 26, 4:00 PM)
Average81 °F72%29.89 "Hg
* Reported Aug 17 3:00 PM — Sep 1 3:00 PM, Rio Branco, Weather by CustomWeather, © 2015

Note: Actual official high and low records may vary slightly from our data, if they occured in-between our weather recording intervals... More about our weather records

Advertising

Rio Branco weather history for previous 24 hours

 ConditionsComfort  
Time TempWeatherWind HumidityBarometerVisibility
3:00 PM
Tue, Sep 1
90 °FScattered clouds.3 mph52%29.92 "HgN/A
2:00 PM90 °FScattered clouds.6 mph52%29.95 "HgN/A
1:00 PM88 °FPartly sunny.7 mph55%29.98 "HgN/A
12:00 PM88 °FScattered clouds.8 mph55%30.01 "HgN/A
11:00 AM86 °FPassing clouds.5 mph62%30.04 "HgN/A
10:00 AM81 °FPassing clouds.6 mph70%30.04 "HgN/A
9:00 AM77 °FSunny.3 mph79%30.07 "Hg10 mi
8:00 AM75 °FSunny.5 mph89%30.07 "Hg10 mi
7:00 AM73 °FSunny.3 mph94%30.04 "Hg10 mi
6:00 AM73 °FClear.5 mph89%30.01 "Hg10 mi
5:00 AM73 °FClear.3 mph89%29.98 "Hg10 mi
4:00 AM73 °FClear.2 mph89%29.98 "Hg10 mi
3:00 AM73 °FClear.9 mph89%29.98 "Hg10 mi
2:00 AM73 °FClear.3 mph89%29.98 "Hg10 mi
1:00 AM73 °FClear.5 mph89%29.98 "Hg10 mi
12:00 AM73 °FClear.2 mph89%29.98 "Hg10 mi
10:00 PM
Mon, Aug 31
75 °FPassing clouds.2 mph83%30.01 "HgN/A
9:00 PM75 °FThundershowers. Partly cloudy.3 mph83%N/AN/A
8:00 PM75 °FThunderstorms. Partly cloudy.9 mph83%29.98 "HgN/A
7:00 PM77 °FThunderstorms. Passing clouds.3 mph79%29.95 "HgN/A
6:00 PM77 °FThunderstorms. Scattered clouds.15 mph79%29.92 "HgN/A
5:00 PM82 °FScattered clouds.5 mph70%29.89 "HgN/A
4:00 PM84 °FScattered clouds.7 mph58%29.86 "HgN/A
Weather by CustomWeather, © 2015

See weather overviewHow to use our weather pages